TOURFACTS.DK  
Stats and Facts from Tour de France.

Tour de France 2018 starts in 75 days
  Riders   Stages   Teams   Summits   Yearly  


 
Search by year

After 2017 - Stage 21:
 14824 starters.
  5132 different riders.
  638 teams.
  2232 stages.
  456 restdays.
  439589.60 km.
  5653 abandonnees.


Top 3
GC
Christopher Froome86:20:55
Rigoberto Urán86:21:49
Romain Bardet86:23:15
Climb
Warren Barguil169 pt.
Primoz Roglic80 pt.
Thomas De Gendt64 pt.
Sprint
Michael Matthews359 pt.
André Greipel234 pt.
Edvald Boasson Hagen220 pt.
Youth
Simon Yates86:27:09
Louis Meintjes86:29:15
Emanuel Buchmann86:54:16
Facts from Tour de France 1938
  |   Stages.  |   Stage winners.  |   Days in yellow  |   Average speed.  |   Route.  |   Teams.  |   All riders.  |   Rookies.  |   Withdrawls.  |  

  |   GC.  |   Polka  |   Green  |   White  |   Summits. (In tour)  |   Summits. (Points)  |   Miscellaneous.  |  

Stage 19 on 28 - 07 - 1938
         Owning:    Gino Bartali    
Pick a stage:  1 2 3 4a 4b 4c 5 6a 6b 7 8 9 10a 10b 10c 11 12 13 14 15 16 17a 17b 18 19 20a 20b 20c 21
  MetzReims | Dist: 196.00 km.

Average speed for all riders in stage:  29,547 km./hr.
    Place:Name:Team:Time:Km/h:
FRAFabien GalateauFRACadets06:35:21  +  00:00:00=29,746 
FRALucien Le GuevelFRABluets06:35:21  +  00:00:00=29,746 
SUIBruno CariniFRACadets06:35:21  +  00:00:00=29,746 
4 SUIPaul EgliCHESwitzerland06:35:57  +  00:00:36=29,701 
5 LUXFrançois NeuensLUXLuxembourg06:35:57  +  00:00:36=29,701 
6 SUIRaymond LouviotFRACadets06:35:57  +  00:00:36=29,701 
7 FRAAndré LeducqFRACadets06:35:57  +  00:00:36=29,701 
8 ESPJulián BerrenderoESPSpain06:35:57  +  00:00:36=29,701 
9 FRAYvan MarieFRACadets06:35:57  +  00:00:36=29,701 
10 LUXArsène MerschLUXLuxembourg06:35:57  +  00:00:36=29,701 
11 BELSylvère MaesBELBelgium06:35:57  +  00:00:36=29,701 
12 ITAGlauco ServadeiITAItaly06:37:39  +  00:02:18=29,574 
13 ITANello TroggiITAItaly06:37:39  +  00:02:18=29,574 
14 BELFrançois NeuvilleBELBelgium06:37:39  +  00:02:18=29,574 
15 FRAPierre JaminetFRAFrance06:37:39  +  00:02:18=29,574 
16 ITAAldo BiniITAItaly06:37:39  +  00:02:18=29,574 
17 ITAGiordano CotturITAItaly06:37:39  +  00:02:18=29,574 
18 FRACamille LeroyFRABluets06:37:39  +  00:02:18=29,574 
19 FRAMathias ClemensLUXLuxembourg06:37:39  +  00:02:18=29,574 
20 ITAGino BartaliITAItaly06:37:39  +  00:02:18=29,574 
21 BELConstant LauwersBELBelgium06:37:39  +  00:02:18=29,574 
22 BELJules LowieBELBelgium06:37:39  +  00:02:18=29,574 
23 BELEmile Masson jr.BELBelgium06:37:39  +  00:02:18=29,574 
24 FRARobert TanneveauFRACadets06:37:39  +  00:02:18=29,574 
25 FRAJean FontenayFRACadets06:37:39  +  00:02:18=29,574 
26 BELAlbertin DisseauxBELBelgium06:37:39  +  00:02:18=29,574 
27 FRARaymond PassatFRACadets06:37:39  +  00:02:18=29,574 
28 BELFélicien VervaeckeBELBelgium06:37:39  +  00:02:18=29,574 
29 BELMarcel KintBELBelgium06:37:39  +  00:02:18=29,574 
30 ITAOreste BernardoniFRABluets06:37:39  +  00:02:18=29,574 
31 FRAAlbert BourlonFRABluets06:37:39  +  00:02:18=29,574 
32 ITADante GianelloFRABluets06:37:39  +  00:02:18=29,574 
33 GERReinhold WendelDEUGermany06:37:39  +  00:02:18=29,574 
34 ESPRafael RamosESPSpain06:37:39  +  00:02:18=29,574 
35 ITAGiuseppe MartanoITAItaly06:37:39  +  00:02:18=29,574 
36 ITAMario ViciniITAItaly06:37:39  +  00:02:18=29,574 
37 GERHerbert HauswaldDEUGermany06:37:39  +  00:02:18=29,574 
38 GEROtto WeckerlingDEUGermany06:37:39  +  00:02:18=29,574 
39 FRAAntonin MagneFRAFrance06:37:39  +  00:02:18=29,574 
40 FRAPierre GallienFRAFrance06:37:39  +  00:02:18=29,574 
41 FRAJean FréchautFRAFrance06:37:39  +  00:02:18=29,574 
42 BELEdward VissersBELBelgium06:37:39  +  00:02:18=29,574 
43 FRAVictor CossonFRAFrance06:37:39  +  00:02:18=29,574 
44 FRAJean-Marie GoasmatFRAFrance06:37:39  +  00:02:18=29,574 
45 ESPMariano CañardoESPSpain06:37:39  +  00:02:18=29,574 
46 ITAVasco BergamaschiITAItaly06:37:39  +  00:02:18=29,574 
47 NEDJanus HellemonsNLDHolland06:39:32  +  00:04:11=29,434 
48 NEDAntoon Van SchendelNLDHolland06:39:32  +  00:04:11=29,434 
49 BELRene WalschotBELBelgium06:39:32  +  00:04:11=29,434 
50 ITALuigi IntrozziITAItaly06:41:52  +  00:06:31=29,263 
51 ITAEnrico MolloITAItaly06:41:52  +  00:06:31=29,263 
52 NEDTheo MiddelkampNLDHolland06:42:24  +  00:07:03=29,225 
53 GERJosef ArentsDEUGermany06:44:54  +  00:09:33=29,044 
54 LUXJean MajerusLUXLuxembourg06:44:54  +  00:09:33=29,044 
55 FRARobert OubronFRACadets06:44:54  +  00:09:33=29,044 


Todays birthdays.

1870  Ferdinand Payan
1888  Giovanni Cocchi
1889  Francois Picolot
1914  Jean Goujon
1916  Rene Walschot
1925  Marcel Hendrickx
1941  Robert Addy
1952  Gaetano Baronchelli
1954  Francisco Fernandez




Visits: